Location: Les Salelles
(44.4192°N, 4.1044°E)
Time: 10:49:44
(UTC+00:00)

EXPRESS MD2 - Pass Details

Date: 20 January 2021
Orbit: 260 x 3983 km, 49.9° (Epoch: 28 February)

Event Time Altitude Azimuth Distance (km) Brightness Sun altitude
Rises 17:36:23 0° 293° (WNW) 5,511 9.2 -10.7°
Reaches altitude 10° 17:40:59 10° 295° (WNW) 3,851 8.3 -11.5°
Maximum altitude 17:49:45 78° 22° (NNE) 878 4.2 -13.0°
Enters shadow 17:53:10 16° 108° (ESE) 1,598 5.2 -13.5°
